Regional Weather Roundup
Issued by NWS

Home | Current Version | Previous Version | Text Only | Print | Product List | Glossary Off
Versions: 1 2 3 4 5 6 7 8 9 10 11 12 13 14 15 16 17 18 19 20 21 22 23 24 25 26 27 28 29 30 31 32 33 34 35 36 37 38 39 40 41 42 43 44 45 46 47 48 49 50

000
ASUS43 KMKX 012200
RWRWI

WISCONSIN REGIONAL WEATHER ROUNDUP
NATIONAL WEATHER SERVICE MILWAUKEE/SULLIVAN WI
500 PM CDT FRI AUG 01 2014

NOTE: "FAIR" INDICATES FEW OR NO CLOUDS BELOW 12,000 FEET WITH NO
SIGNIFICANT WEATHER AND/OR OBSTRUCTIONS TO VISIBILITY.

WIZ001-002-006>008-014>016-023>028-012300-
NORTHWEST WISCONSIN

CITY           SKY/WX    TMP DP  RH WIND       PRES   REMARKS
SUPERIOR ARPT  MOSUNNY   68  57  67 NE7       30.05F
ASHLAND        MOSUNNY   75  63  66 N7        30.07F
HAYWARD        NOT AVBL
SIREN          MOSUNNY   82  53  37 W6        30.06S HX  81
RICE LAKE      SUNNY     79  54  41 N5        30.08R HX  80
LADYSMITH      PTSUNNY   78  56  46 N8        30.08S
EAU CLAIRE     NOT AVBL
MENOMONIE      PTCLDY    83  54  36 NW8       30.05S HX  82
NEW RICHMOND   SUNNY     82  55  39 CALM      30.05F HX  81
OSCEOLA        SUNNY     82  55  39 CALM      30.06F HX  82
$$

WIZ003>005-009-010-017-018-012300-
NORTH CENTRAL WISCONSIN

CITY           SKY/WX    TMP DP  RH WIND       PRES   REMARKS
WOODRUFF       MOSUNNY   80  51  36 N3        30.08F
RHINELANDER    MOSUNNY   76  52  43 VRB6      30.08S
EAGLE RIVER    MOSUNNY   76  48  37 N6        30.08S
LAND O LAKES   MOSUNNY   75  49  41 NW5       30.10S
PHILLIPS       MOSUNNY   75  54  48 N7        30.08R
TOMAHAWK       MOSUNNY   75  55  48 CALM      30.07S
MEDFORD        PTSUNNY   78  59  51 N5        30.06F
MERRILL        PTSUNNY   78  62  57 CALM      30.06S
$$

WIZ029-030-035-036-043>047-012300-
CENTRAL WISCONSIN

CITY           SKY/WX    TMP DP  RH WIND       PRES   REMARKS
WAUSAU         NOT AVBL
MOSINEE        MOSUNNY   66  61  82 CALM      30.08R
MARSHFIELD     CLOUDY    64  57  77 SW12      30.08R
STEVENS POINT  CLOUDY    68  57  67 SE6       30.07F
WAUPACA        CLOUDY    75  63  65 NW3       30.07R
WAUTOMA        NOT AVBL
WISC RAPIDS    NOT AVBL
CAMP DOUGLAS   NOT AVBL
$$

WIZ011>013-019>022-031-037>040-048>050-012300-
NORTHEAST WISCONSIN

CITY           SKY/WX    TMP DP  RH WIND       PRES   REMARKS
ANTIGO         CLOUDY    76  55  48 N3        30.07F
STURGEON BAY   PTSUNNY   73  64  73 S8        30.06S
GREEN BAY      CLOUDY    76  65  68 N6        30.04S
MANITOWOC      NOT AVBL
APPLETON       CLOUDY    70  55  60 SW8       30.06S
CLINTONVILLE   CLOUDY    66  61  82 E3        30.04F
OSHKOSH        CLOUDY    77  64  64 W7        30.05S
$$

WIZ032>034-041-042-053>061-012300-
SOUTHWEST WISCONSIN

CITY           SKY/WX    TMP DP  RH WIND       PRES   REMARKS
LA CROSSE      NOT AVBL
SPARTA         MOSUNNY   82  56  40 W8        30.05F HX  81
VIROQUA        FAIR      80  58  48 NW7       30.07F HX  80
BOSCOBEL       NOT AVBL
PRAIRIE DU CHI SUNNY     83  50  31 W3        30.04F HX  81
PLATTEVILLE    FAIR      80  56  42 W3        30.07S HX  80
$$

WIZ056-057-062-063-064-067-068-012300-
SOUTH CENTRAL WISCONSIN

CITY           SKY/WX    TMP DP  RH WIND       PRES   REMARKS
BARABOO/DELLS  MOSUNNY   84  53  34 W5        30.05S HX  82
LONE ROCK      NOT AVBL
WATERTOWN      PTSUNNY   81  60  48 NW10      30.04S HX  82
MADISON        NOT AVBL
MIDDLETON      FAIR      84  53  34 W7        30.05F HX  83
MONROE         SUNNY     81  54  39 N7        30.06S HX  80
JANESVILLE     MOSUNNY   84  48  28 NW6       30.04S HX  82
$$

WIZ051-052-058>065-066-070>072-012300-
SOUTHEAST WISCONSIN

CITY           SKY/WX    TMP DP  RH WIND       PRES   REMARKS
MILWAUKEE      TSTM      71  61  70 E7        30.05S
WAUKESHA       MOSUNNY   81  55  41 SW5       30.05F HX  80
MILWAUKEE/TIMM NOT AVBL
RACINE         NOT AVBL
BURLINGTON     MOSUNNY   81  55  40 SW6       30.05S HX  80
KENOSHA        NOT AVBL
FOND DU LAC    NOT AVBL
SHEBOYGAN      NOT AVBL
WEST BEND      CLOUDY    72  46  40 N8G18     30.05R
JUNEAU         CLOUDY    76  56  48 NW3       30.07S
$$

LSZ147-162-012300-
LAKE SUPERIOR

STATION/POSITION TIME  TEMP    WIND        PRES    WAVE
                       AIR SEA DIR/SP/G            HT/PER
                 (UTC) (F)     (DEG/KT/KT) (MB)    (FT/S)
W MID LAKE BUOY  2050   51 47  260/  2/  2 1019.0S   0
PORT WING        2100   65      10/  7/  8 1017.9
SAXON HARBOR     2140           CALM  /  3 1018.6S
$$

LMZ867-665-643>646-012300-
LAKE MICHIGAN

STATION/POSITION TIME  TEMP    WIND        PRES    WAVE
                       AIR SEA DIR/SP/G            HT/PER
                 (UTC) (F)     (DEG/KT/KT) (MB)    (FT/S)
N MID LAKE BUOY  2050   62 60   60/  2/  2 1017.6R   0
NORTHPORT PIER   2100   64     110/  6/  7 1017.6S
SISTER BAY       2041   77        CALM       N/A
ALGOMA LAKESHORE 1951          100/  7/  7   N/A
KEWAUNEE LAKESHO 2100   64     150/  2/  4 1016.8R
SHEBOYGAN LAKESH 2100   69     170/ 12/ 12 1017.2R
PORT WASHINGTON  2140   71     320/ 10/ 15 1018.3R
ATWATER BUOY     2100   69     140/ 12     1018.3F
MILWAUKEE LAKESH 2100   69     140/ 16/ 20   N/A
S MID LAKE BUOY  2050   67 66  160/  8/  8 1018.4R   0
KENOSHA   LAKESH 2100   70     160/ 12/ 13 1017.6R
$$

TC  - TEMPERATURE IN CELSIUS
VSB - VISIBILITY IN STATUTE MILES
WCI - WIND CHILL INDEX
HX  - HEAT INDEX



USA.gov is the U.S. government's official web portal to all federal, state and local government web resources and services.